Location: Newark
(41.7772°N, 74.7403°W)
Time: 13:26:54
(UTC+00:00)

Transit 4A - Pass Details

Date: 03 June 2020
Orbit: 866 x 978 km, 66.8° (Epoch: 06 July)

Event Time Altitude Azimuth Distance (km) Brightness Sun altitude
Exits shadow 04:20:45 17° 95° (E) 2,075 9.6 -25.3°
Drops below altitude 10° 04:23:42 10° 65° (ENE) 2,537 10.4 -25.4°
Sets 04:27:03 0° 46° (NE) 3,498 11.4 -25.5°
